Temp
9 10 10 11 11 12 12 12 12 11 11 11 11 11 9 10 11 12 12 12 12 13 14 14 14 14 14 14 14 14 13 13 13 13 12 12 12 12 13 13 13 13 13
8 9 10 11 11 12 12 12 12 11 11 11 11 10 9 10 10 12 13 13 12 13 14 14 14 14 15 14 13 13 13 13 13 13 12 12 12 12 13 13 13 13 13
8 9 9 10 11 11 11 12 11 11 11 11 10 10 9 10 9 10 11 11 12 13 14 15 14 14 14 14 13 13 13 13 13 13 13 12 13 13 13 13 13 13 13
8 8 8 9 10 11 11 11 11 11 11 10 9 10 10 9 10 11 15 15 13 12 14 15 14 15 14 14 13 13 13 13 13 13 13 14 15 14 13 13 13 13 13
7 8 8 9 11 11 11 11 11 11 10 10 9 9 10 10 10 12 17 13 12 13 14 14 14 15 15 14 13 13 13 13 13 13 13 14 14 14 14 13 13 13 13
7 9 10 10 11 11 11 11 11 11 10 9 10 9 9 10 12 13 14 12 13 13 13 13 14 14 15 14 13 13 13 13 13 14 14 15 15 15 15 15 14 13 13
7 8 9 10 11 11 11 12 10 10 9 10 9 9 9 10 13 14 14 12 13 13 13 12 14 14 15 14 13 13 13 13 13 13 14 14 15 15 15 15 14 14 12
10 9 10 11 11 11 11 11 10 9 9 9 10 9 9 11 14 15 14 12 12 13 13 13 13 14 14 14 13 13 13 13 13 13 13 14 14 14 14 14 14 13 12
10 12 11 11 11 11 10 9 8 8 8 9 9 9 9 10 14 15 12 12 13 13 13 13 13 13 13 13 13 13 12 13 13 13 13 14 14 13 13 13 14 13 13
8 10 10 10 10 9 9 8 8 8 9 9 9 9 10 10 13 13 11 12 13 15 15 13 13 14 13 13 13 13 12 12 13 13 13 13 13 13 13 13 13 13 13
8 9 9 9 9 8 8 7 8 8 9 9 9 9 10 10 11 12 11 12 13 13 13 13 13 13 13 12 12 13 12 12 12 12 13 13 13 12 12 12 12 12 12
8 8 8 8 8 8 8 8 9 9 9 9 9 10 10 11 11 10 11 12 13 13 13 13 12 12 13 12 13 12 12 12 12 12 12 12 12 12 12 12 12 12 11
7 8 8 8 8 8 9 9 9 9 9 9 10 10 10 11 11 10 10 11 13 13 12 12 12 12 12 12 11 12 12 12 12 12 12 12 11 12 12 11 11 10 9
6 7 8 8 9 9 9 9 9 9 9 10 10 10 10 10 11 11 11 11 12 12 12 12 12 12 12 12 12 11 11 11 11 12 12 11 11 11 11 11 11 9 9
4 6 7 8 9 9 9 9 9 10 10 10 10 9 9 9 10 11 11 11 11 11 11 12 12 12 12 12 11 11 11 11 11 11 11 10 10 10 10 10 10 9 9
3 5 6 7 8 8 9 9 9 9 9 9 9 9 10 10 10 10 11 11 11 10 11 11 11 11 11 11 11 11 11 12 12 11 10 10 10 10 10 9 9 8 8
4 4 5 6 7 8 9 9 9 9 9 9 9 9 9 9 10 10 10 10 10 11 11 10 10 11 11 11 11 10 11 10 11 10 10 10 10 9 9 8 8 8 7
4 5 5 6 6 7 8 8 8 8 8 8 8 8 9 9 9 9 10 10 10 10 10 10 10 10 10 10 10 10 10 10 10 9 10 9 9 9 8 8 7 6 7
4 4 5 5 6 6 7 7 7 7 7 7 7 8 8 8 9 9 9 9 9 9 10 10 10 10 10 10 9 9 9 9 9 9 9 9 9 8 8 7 6 7 6
4 4 5 6 6 6 7 8 7 8 7 7 7 7 7 8 8 8 8 8 8 8 9 9 9 9 9 10 10 9 9 9 9 8 8 8 8 7 7 7 7 7 7
4 4 5 4 4 5 6 6 6 6 6 6 6 7 7 8 8 7 7 7 8 8 8 8 7 8 8 8 8 8 9 9 8 9 8 8 8 7 8 7 7 7 6
4 4 5 4 4 4 5 5 5 3 4 4 5 5 6 6 7 7 7 7 7 7 7 7 7 7 7 7 7 7 7 7 8 8 8 8 8 8 7 6 6 6 6
3 3 3 4 4 4 4 5 3 4 4 4 5 5 4 4 5 5 5 5 5 5 5 6 7 7 6 6 6 6 6 6 7 7 7 7 6 6 5 5 5 6 5
3 3 3 3 3 2 2 2 2 2 2 3 3 3 3 4 4 4 3 3 3 3 3 4 4 5 5 5 6 6 6 6 6 5 4 5 5 5 5 4 4 5 4
3 2 2 2 2 2 1 1 1 2 2 3 2 2 2 2 1 1 1 1 1 1 1 1 1 2 3 4 3 3 4 5 5 4 3 3 3 3 3 3 3 4 3
2 2 1 1 1 0 -0 0 1 1 1 1 0 -0 1 0 0 -1 -0 0 0 1 0 0 0 0 1 1 2 2 2 2 2 2 3 3 3 4 4 4 3 3 3
Height
1435 1437 1439 1441 1443 1444 1445 1447 1450 1453 1456 1457 1460 1460 1461 1468 1471 1475 1482 1488 1496 1501 1507 1511 1519 1524 1529 1534 1541 1546 1549 1553 1559 1561 1564 1567 1568 1569 1569 1570 1571 1572 1573
1425 1426 1429 1432 1433 1436 1438 1440 1442 1445 1448 1451 1453 1455 1458 1462 1465 1464 1471 1478 1482 1492 1499 1504 1512 1517 1524 1530 1536 1541 1545 1550 1554 1556 1561 1564 1567 1566 1567 1568 1569 1569 1570
1413 1414 1418 1420 1425 1427 1430 1432 1435 1439 1442 1444 1446 1448 1451 1454 1454 1459 1467 1472 1482 1487 1492 1498 1506 1511 1518 1524 1531 1536 1540 1544 1550 1553 1555 1559 1560 1562 1564 1565 1566 1567 1568
1402 1402 1406 1409 1414 1418 1423 1426 1429 1432 1434 1436 1438 1440 1442 1445 1446 1450 1456 1458 1465 1477 1484 1492 1500 1505 1513 1520 1526 1531 1536 1540 1543 1549 1552 1553 1554 1557 1561 1562 1563 1564 1565
1393 1390 1393 1397 1404 1411 1415 1420 1422 1424 1427 1429 1432 1434 1437 1440 1440 1445 1446 1452 1452 1467 1477 1485 1493 1500 1507 1514 1521 1527 1533 1537 1540 1542 1546 1550 1552 1553 1554 1556 1559 1561 1561
1380 1377 1384 1392 1397 1404 1409 1412 1415 1417 1420 1422 1425 1428 1431 1433 1436 1434 1438 1449 1448 1460 1471 1480 1488 1496 1502 1509 1516 1523 1529 1533 1537 1540 1543 1545 1547 1548 1550 1552 1555 1557 1559
1374 1373 1377 1384 1392 1397 1402 1405 1409 1413 1413 1415 1419 1423 1427 1428 1429 1431 1433 1440 1450 1457 1465 1476 1484 1492 1497 1505 1512 1519 1524 1529 1533 1537 1540 1543 1545 1546 1548 1550 1551 1552 1554
1367 1371 1376 1382 1388 1392 1397 1400 1405 1408 1408 1410 1415 1418 1420 1419 1419 1418 1425 1438 1448 1453 1462 1471 1480 1488 1493 1501 1508 1515 1520 1525 1530 1534 1537 1539 1542 1544 1545 1547 1548 1548 1549
1368 1371 1375 1380 1384 1388 1391 1397 1400 1404 1403 1404 1408 1416 1419 1419 1415 1418 1428 1437 1445 1451 1459 1467 1476 1482 1489 1496 1504 1509 1515 1520 1525 1529 1532 1535 1537 1540 1542 1543 1545 1544 1545
1371 1372 1375 1379 1381 1387 1388 1393 1394 1397 1400 1402 1406 1412 1415 1417 1418 1418 1430 1436 1444 1450 1456 1465 1471 1478 1485 1493 1499 1505 1511 1515 1520 1524 1528 1530 1532 1535 1537 1539 1542 1542 1542
1371 1371 1372 1378 1379 1384 1387 1388 1388 1388 1396 1400 1406 1411 1415 1416 1416 1419 1427 1434 1442 1448 1454 1461 1468 1474 1480 1488 1494 1500 1506 1511 1515 1519 1522 1525 1528 1530 1533 1535 1537 1538 1538
1369 1369 1372 1375 1379 1380 1381 1383 1381 1389 1396 1401 1407 1413 1414 1407 1409 1416 1422 1429 1437 1445 1452 1459 1466 1472 1479 1485 1490 1496 1501 1506 1509 1512 1515 1518 1522 1525 1529 1531 1533 1534 1534
1366 1367 1372 1374 1375 1375 1373 1377 1385 1391 1397 1403 1406 1407 1405 1396 1400 1410 1418 1425 1435 1443 1452 1458 1464 1471 1477 1482 1487 1493 1496 1500 1503 1507 1510 1513 1516 1519 1522 1525 1527 1529 1530
1370 1367 1372 1372 1372 1374 1380 1385 1391 1394 1398 1401 1405 1407 1408 1405 1401 1407 1417 1426 1434 1442 1449 1456 1463 1470 1474 1479 1485 1488 1491 1496 1499 1502 1506 1509 1511 1513 1516 1518 1520 1524 1526
1378 1378 1376 1376 1379 1383 1387 1391 1394 1396 1398 1403 1409 1413 1410 1407 1408 1413 1420 1426 1432 1440 1448 1454 1460 1465 1469 1474 1479 1483 1486 1489 1493 1497 1500 1504 1506 1508 1510 1511 1513 1517 1519
1394 1392 1390 1388 1388 1391 1394 1396 1400 1403 1405 1409 1409 1412 1413 1411 1413 1418 1420 1423 1428 1437 1444 1450 1455 1460 1465 1469 1474 1477 1480 1481 1486 1489 1493 1497 1499 1502 1504 1505 1507 1511 1510
1407 1404 1405 1403 1402 1403 1405 1406 1408 1411 1412 1413 1415 1418 1419 1419 1420 1422 1425 1428 1430 1435 1440 1446 1450 1454 1460 1463 1467 1472 1475 1477 1478 1482 1486 1489 1491 1494 1492 1494 1498 1500 1504
1423 1420 1418 1417 1415 1413 1411 1412 1413 1416 1417 1420 1422 1422 1423 1423 1425 1429 1432 1434 1438 1441 1443 1445 1445 1452 1456 1458 1458 1465 1468 1469 1473 1475 1477 1480 1482 1484 1487 1491 1492 1496 1499
1436 1433 1431 1429 1427 1426 1425 1425 1424 1426 1427 1431 1431 1429 1429 1429 1431 1431 1434 1437 1440 1443 1444 1447 1449 1451 1453 1455 1457 1460 1461 1464 1466 1468 1469 1473 1476 1480 1482 1485 1489 1492 1495
1443 1440 1438 1437 1433 1432 1432 1431 1430 1430 1434 1433 1432 1432 1432 1432 1434 1437 1439 1440 1441 1442 1444 1447 1449 1451 1452 1453 1454 1457 1457 1460 1463 1463 1464 1468 1471 1474 1478 1481 1483 1485 1489
1448 1447 1443 1442 1441 1441 1440 1437 1438 1437 1439 1439 1438 1437 1437 1437 1438 1440 1442 1444 1443 1444 1447 1447 1448 1449 1449 1451 1452 1454 1454 1454 1455 1457 1458 1461 1464 1467 1469 1473 1476 1477 1482
1453 1451 1449 1447 1449 1448 1446 1444 1443 1446 1447 1445 1443 1442 1442 1439 1440 1442 1443 1444 1444 1443 1445 1445 1444 1445 1446 1446 1447 1450 1451 1450 1451 1452 1453 1454 1458 1459 1463 1466 1469 1472 1474
1458 1457 1456 1456 1453 1450 1449 1447 1451 1448 1448 1450 1444 1442 1444 1440 1437 1441 1443 1443 1444 1441 1443 1444 1443 1440 1439 1440 1441 1443 1444 1444 1444 1445 1447 1449 1450 1453 1459 1462 1462 1463 1467
1461 1461 1458 1456 1455 1453 1452 1455 1450 1451 1454 1446 1440 1444 1441 1439 1432 1438 1444 1440 1437 1433 1438 1440 1438 1435 1434 1437 1437 1436 1437 1436 1435 1436 1441 1443 1444 1448 1451 1454 1457 1458 1460
1462 1461 1460 1459 1458 1455 1454 1451 1451 1452 1450 1441 1444 1444 1436 1436 1439 1443 1441 1440 1435 1433 1435 1434 1432 1429 1430 1429 1430 1431 1431 1430 1430 1430 1433 1438 1437 1438 1443 1446 1448 1452 1455
1462 1460 1458 1458 1457 1456 1456 1453 1448 1442 1440 1441 1444 1438 1434 1435 1432 1435 1436 1437 1435 1434 1431 1424 1426 1428 1425 1421 1421 1425 1422 1424 1423 1420 1420 1430 1433 1430 1433 1437 1441 1444 1447
Wind_Speed
39 42 40 38 34 31 31 34 36 34 32 31 30 35 33 36 38 46 53 22 31 49 49 49 46 42 43 41 39 37 35 31 27 24 20 17 15 14 12 11 10 8 6
38 42 44 40 39 36 32 31 35 36 34 32 32 33 34 38 36 38 47 57 28 56 55 52 49 46 43 43 43 40 38 34 32 30 26 19 18 18 16 15 13 10 9
37 44 45 46 37 39 36 35 31 35 35 34 33 32 33 37 35 38 43 45 37 58 58 54 50 46 45 46 46 42 41 39 35 32 23 12 10 19 18 16 13 11 8
43 45 41 44 42 35 32 30 31 35 34 33 30 33 38 38 41 46 47 51 53 65 61 54 50 46 46 46 47 44 43 42 40 35 30 19 14 17 14 18 16 15 13
33 45 45 43 42 32 31 30 30 34 32 32 30 36 36 40 36 47 41 34 64 64 60 56 52 49 45 47 47 46 44 42 42 40 36 27 17 25 22 20 19 18 17
26 33 39 36 37 33 32 33 34 32 29 29 30 35 36 31 34 34 47 32 53 60 58 55 52 48 44 46 46 46 45 43 41 38 36 32 27 28 23 16 19 17 17
20 20 29 31 31 31 26 28 35 31 29 26 32 36 29 27 32 31 41 52 51 57 58 55 52 49 42 45 44 45 46 44 41 38 35 32 27 26 23 19 17 15 18
6 14 20 24 27 26 28 28 28 25 26 31 35 35 14 16 29 25 25 46 53 58 58 57 55 52 47 43 43 44 45 44 41 38 36 34 30 26 24 22 16 16 16
6 11 19 25 23 20 20 26 24 26 28 33 29 32 22 8 16 25 33 48 52 57 56 54 54 50 48 45 45 43 44 43 42 40 38 35 32 30 26 23 18 13 12
5 9 14 19 20 20 22 25 33 34 32 29 28 26 17 10 15 14 31 39 41 45 49 50 50 49 47 48 47 43 42 42 41 39 36 34 32 30 29 24 19 12 14
8 11 16 18 19 19 27 29 33 37 35 26 24 29 31 30 25 26 28 38 40 38 41 44 45 46 46 52 46 42 41 41 40 39 38 36 33 31 29 25 22 18 19
11 12 14 17 17 20 22 24 22 22 21 20 13 15 18 30 30 33 36 43 44 39 38 40 39 41 44 48 47 45 40 41 43 42 41 39 35 32 29 27 25 21 20
12 6 10 10 19 23 15 27 23 22 18 22 17 9 6 14 24 31 40 48 43 39 40 42 42 43 43 41 39 41 42 42 43 43 41 38 35 32 30 27 26 23 22
33 36 24 20 17 15 16 19 20 22 22 18 14 10 7 15 32 37 41 42 37 35 39 39 44 42 40 41 42 41 41 42 42 41 40 37 34 31 28 28 26 25 24
43 46 41 41 36 28 22 24 20 23 21 22 21 20 19 16 18 17 22 31 29 31 34 37 39 41 42 42 41 42 42 42 42 40 40 35 31 27 29 26 26 26 24
41 44 45 45 43 38 35 33 30 27 21 20 19 17 18 18 17 14 14 9 31 32 29 32 36 39 41 42 41 39 40 40 40 41 37 36 30 30 29 27 26 23 19
41 42 41 39 37 36 34 33 29 25 25 23 21 18 14 18 17 14 13 10 10 19 26 30 34 35 35 39 44 41 43 42 38 37 33 33 33 36 36 31 24 21 19
36 36 35 34 33 30 30 27 27 25 23 22 21 20 20 18 13 9 10 9 8 8 8 12 22 28 26 28 41 44 36 33 36 32 30 34 35 37 28 23 21 21 20
30 31 31 31 31 30 26 24 24 22 22 21 19 18 16 15 13 12 10 9 7 4 4 5 8 13 15 20 28 30 29 28 31 29 28 25 23 26 28 22 21 21 20
28 29 28 28 30 28 25 23 25 23 22 20 18 15 14 14 11 9 5 2 0 3 5 8 10 11 12 13 18 21 19 20 21 25 27 30 30 25 20 22 22 23 22
25 25 27 29 29 26 24 26 24 26 23 20 18 16 13 12 10 9 7 5 5 8 9 10 11 13 15 16 19 22 24 25 27 29 28 27 28 25 27 26 27 23 20
18 20 21 24 22 22 22 22 24 20 17 16 15 16 15 14 13 12 12 11 10 10 13 16 15 15 17 19 20 21 24 26 29 29 29 29 30 29 29 28 25 24 24
14 16 17 16 17 17 18 17 16 15 14 11 12 13 12 12 12 13 14 14 14 15 16 17 20 19 20 20 22 23 26 27 30 30 31 29 26 25 26 27 28 28 28
10 11 12 13 14 15 15 14 13 11 12 13 13 12 12 12 11 13 14 14 15 16 19 21 22 21 22 23 24 27 29 29 29 29 27 28 29 29 31 32 31 29 27
8 8 9 10 11 13 14 15 15 16 18 18 18 18 19 20 17 16 17 18 16 16 20 22 24 25 28 25 24 25 27 28 30 29 29 30 32 32 33 32 31 30 29
6 9 11 12 13 13 15 17 21 23 25 24 24 24 24 27 27 25 26 22 21 23 23 20 22 27 29 27 28 28 28 29 29 32 34 37 38 37 36 35 35 34 32
Wind_Direction
267 268 269 266 264 252 258 245 241 240 246 250 252 239 234 221 225 230 238 237 231 224 216 208 203 201 197 194 192 190 187 186 190 187 189 196 205 220 228 235 239 240 236
261 263 264 263 263 250 252 246 243 239 244 250 250 242 234 233 228 232 243 237 243 219 214 209 202 199 200 194 193 192 187 189 193 190 186 190 208 219 221 225 233 237 236
251 257 258 256 258 249 249 248 242 236 244 247 242 242 232 239 237 223 229 234 228 216 213 208 201 199 200 196 196 195 193 190 193 200 184 176 207 205 213 206 201 206 217
248 250 248 252 250 247 242 235 238 236 238 241 232 238 226 228 225 217 228 247 253 208 209 205 199 202 200 197 199 197 197 196 195 196 205 201 200 180 187 197 201 205 216
274 252 245 244 246 244 232 234 236 230 237 231 228 229 224 226 224 221 226 246 190 202 204 201 202 199 201 200 200 200 202 204 202 199 201 209 204 195 188 194 203 208 221
303 245 243 238 237 241 232 239 233 234 236 226 223 216 225 209 210 216 226 231 184 196 201 197 198 199 203 205 204 204 206 208 210 209 208 209 206 201 199 197 199 215 228
304 237 223 223 235 225 232 230 231 232 228 228 223 209 218 215 214 211 203 189 191 195 197 198 200 201 206 209 208 208 209 212 212 213 213 215 219 215 208 205 205 221 232
276 221 228 221 219 227 232 228 227 228 231 231 214 201 190 199 208 207 215 195 200 202 197 199 201 204 207 213 210 213 213 214 216 216 218 220 220 220 225 219 218 220 227
203 212 215 214 219 222 214 215 227 242 238 208 216 210 210 193 176 199 189 197 201 200 200 199 203 206 207 211 210 214 217 218 218 220 222 222 224 224 221 224 223 222 224
201 195 208 210 212 227 233 246 255 226 224 216 209 211 218 220 191 179 203 200 206 208 203 200 203 208 213 216 210 215 218 219 218 218 219 220 218 219 224 226 218 231 236
240 232 231 228 232 234 240 232 240 214 203 197 202 211 229 241 232 231 225 205 208 215 210 213 216 218 217 214 211 219 219 219 220 218 217 220 224 227 226 223 225 251 238
261 253 236 237 235 246 253 237 183 180 183 179 180 204 234 244 234 224 210 216 208 217 217 212 212 208 212 211 216 214 218 220 220 220 220 223 225 225 228 228 245 249 235
56 227 208 213 234 246 180 151 169 158 169 167 171 144 37 211 202 205 203 208 203 211 211 207 206 211 216 218 220 226 226 224 223 221 222 222 221 224 227 235 244 235 226
46 73 81 90 141 121 118 125 143 157 164 173 123 104 79 87 153 173 192 195 203 211 211 211 211 214 218 216 220 223 226 225 224 223 222 221 223 221 234 239 241 232 230
40 54 60 69 97 119 121 118 131 109 103 100 99 83 81 90 103 112 188 203 208 211 214 215 215 220 221 225 227 229 228 225 224 223 220 223 224 237 240 238 237 231 232
39 50 58 63 70 76 81 84 89 92 91 84 71 66 72 77 94 95 84 158 202 212 208 215 220 224 227 229 228 227 225 222 225 222 225 221 227 236 235 228 223 228 231
45 50 57 61 65 70 75 75 74 74 75 72 70 70 74 85 86 91 92 91 141 205 217 217 219 219 224 228 229 230 228 232 221 227 227 232 246 245 217 208 213 220 220
55 55 55 57 60 64 66 72 76 77 75 74 72 69 68 75 86 99 98 102 116 131 162 177 196 211 218 223 221 230 226 224 224 230 243 240 234 236 218 219 218 214 214
62 63 63 60 59 58 62 68 65 61 59 55 58 62 65 72 81 92 95 96 92 122 147 187 212 209 210 225 223 222 227 227 230 228 229 219 221 224 214 215 215 212 216
60 61 62 62 59 53 52 55 56 55 53 47 45 43 39 38 37 38 42 56 203 212 197 205 204 218 230 221 221 227 229 223 233 222 210 218 216 212 226 222 214 217 224
54 53 55 55 55 50 48 53 52 47 38 34 30 28 27 22 12 3 354 335 310 295 275 259 248 238 228 231 225 230 238 233 229 228 226 228 221 232 228 216 216 219 226
50 46 44 45 44 41 40 44 47 45 39 34 32 27 20 17 8 351 335 323 306 283 281 279 273 267 261 255 247 237 232 235 235 237 233 230 236 230 216 213 215 222 228
50 45 42 41 37 31 27 27 32 26 16 5 16 13 8 9 6 349 337 329 319 314 303 285 272 271 272 268 262 258 247 242 239 235 237 231 226 222 219 217 218 225 231
37 33 27 30 28 23 17 13 10 359 340 353 0 344 342 337 338 325 313 314 318 318 307 296 291 285 276 265 257 255 252 246 241 233 228 223 220 217 218 220 225 229 230
20 11 7 8 6 359 349 345 338 329 327 335 326 324 331 330 322 311 316 316 313 313 302 297 297 294 283 275 275 268 259 250 245 239 232 228 224 224 225 225 230 233 229
356 350 351 347 345 342 335 333 333 335 333 331 327 331 330 326 322 314 306 296 298 295 298 299 295 289 285 281 277 265 259 256 247 237 232 235 233 230 230 229 230 229 229